Simultaneous Nadir Overpasses (SNOs) Predictions

Prediction of SNOs between GOES-17 and METOP-B Satellite Orbit:

Table of predicted SNOs for the next 14.0 days since TLE Epoch: 9/2/2023
Index Date Time (GOES-17) GOES-17 Lat,Lon METOP-B Lat,Lon Distance(km) Time Diff (sec)
1 09/02/2023 16:28:48 -0.00,-104.71 0.16,-105.34 71.80 80
2 09/03/2023 16:10:48 -0.00,-104.72 -0.95,-100.34 497.92 80
3 09/05/2023 04:29:47 -0.00,-104.69 -0.06,-104.94 28.04 80
4 09/07/2023 16:27:57 -0.00,-104.72 -0.05,-104.51 24.40 80
5 09/10/2023 04:23:35 0.00,-104.70 0.11,-104.10 68.34 80
6 09/11/2023 16:42:25 -0.01,-104.72 0.88,-108.66 448.96 80
7 09/12/2023 16:24:25 -0.01,-104.73 -0.23,-103.67 120.98 80
8 09/14/2023 04:43:23 0.01,-104.72 -0.81,-108.25 403.51 80
9 09/15/2023 04:20:03 0.00,-104.72 0.31,-103.26 166.31 80
